Location: Sobotiste
(48.7170°N, 17.4000°E)
Time: 05:36:08
(UTC+01:00)

Oscar 11 - Visible Passes

Search period start: 11 March 2026 00:00
Search period end: 21 March 2026 00:00
Orbit: 590 x 602 km, 97.8° (Epoch: 10 March)

Date Brightness Start Highest point End Pass type
(mag) Time Alt. Az. Time Alt. Az. Time Alt. Az.
11 Mar 7.5 03:31:00 10° NNE 03:34:19 55° NNE 03:34:19 55° NNE visible
11 Mar 8.9 05:08:22 10° NNW 05:10:15 13° WNW 05:11:00 12° WNW visible
12 Mar 10.1 02:07:24 10° ENE 02:07:51 11° ENE 02:07:51 11° ENE visible
12 Mar 7.2 03:40:58 10° N 03:44:32 62° N 03:44:32 62° N visible
12 Mar 9.1 05:19:16 10° NW 05:20:04 10° NW 05:20:50 10° WNW visible
13 Mar 9.8 02:16:37 10° NE 02:18:04 14° ENE 02:18:04 14° ENE visible
13 Mar 7.1 03:50:57 10° N 03:54:45 58° NW 03:54:45 58° NW visible
14 Mar 9.5 02:26:08 10° NE 02:28:16 18° ENE 02:28:16 18° ENE visible
14 Mar 7.2 04:00:58 10° N 04:04:57 48° WNW 04:04:57 48° WNW visible
15 Mar 9.2 02:35:46 10° NE 02:38:29 22° E 02:38:29 22° E visible
15 Mar 7.5 04:11:00 10° N 04:14:54 39° WNW 04:15:10 38° WNW visible
16 Mar 8.8 02:45:29 10° NE 02:48:41 28° E 02:48:41 28° E visible
16 Mar 7.8 04:21:04 10° N 04:24:47 31° WNW 04:25:21 30° W visible
17 Mar 8.4 02:55:15 10° NNE 02:58:53 35° E 02:58:53 35° E visible
17 Mar 8.1 04:31:10 10° N 04:34:38 26° WNW 04:35:33 24° W visible
18 Mar 7.9 03:05:05 10° NNE 03:09:05 45° E 03:09:05 45° E visible
18 Mar 8.4 04:41:19 10° NNW 04:44:29 21° WNW 04:45:45 18° W visible
19 Mar 7.4 03:14:56 10° NNE 03:19:05 57° E 03:19:16 56° ESE visible
19 Mar 8.6 04:51:32 10° NNW 04:54:19 18° WNW 04:55:57 14° W visible
20 Mar 7.0 03:24:49 10° NNE 03:29:01 73° ESE 03:29:28 65° SSE visible
20 Mar 8.8 05:01:51 10° NNW 05:04:08 14° WNW 05:06:09 11° W visible
